Погода в Новорусове

Россия / Республика Адыгея     44°59′22″N   40°08′40″E
темп.,
°C
ветер,
м/с
пор.,
м/с
влажн.,
%
обл.,
%
осадки,
мм/ч
давл.,
гПа
погр.,
м
14 августа, вс
вс1400:00+26в513350 0.0 1006375
03:00+22в48412 0.0 1006160
06:00+21всв410440 0.0 1006293
09:00+29в67350 0.0 1005858
12:00+35юв342797 0.0 10041997
15:00+33ю243267 0.0 1004667
18:00+32юз333436 0.0 1003375
21:00+26юз33531 0.1 100440
15 августа, пн
пн1500:00+23ююз33700 0.0 100438
03:00+21юз22790 0.0 100425
06:00+21ссв00796 0.0 100511
09:00+29юв124425 0.0 1005699
12:00+33всв233099 0.0 10041179
15:00+37вюв23256 0.0 10031614
18:00+36зсз33240 0.0 1002571
21:00+24зсз35650 0.5 100359
16 августа, вт
вт1600:00+23зюз33710 0.1 100525
03:00+20зюз4109186 0.4 1007219
06:00+22зюз019091 0.1 100965
09:00+28сз345828 0.2 1010685
12:00+33ссз22384 0.2 10101506
15:00+36зсз223229 0.2 10082483
18:00+32зсз44425 0.1 1008848
21:00+28зсз23570 0.1 100933
17 августа, ср
ср1700:00+25юз34710 0.0 101072
03:00+22зюз23850 0.0 101057
06:00+22з22810 0.0 101076
09:00+29сз11510 0.0 1010693
12:00+35ссз22350 0.0 10081737
15:00+37ссз332843 0.0 10062842
18:00+36ссз553063 0.1 10061003
21:00+25сз487028 1.5 1007120
18 августа, чт
чт1800:00+22юз348893 1.2 100865
03:00+20юз3494100 2.3 100890
06:00+21з24931 1.7 1008118
09:00+27зюз22625 1.7 1009454
12:00+33зсз32391 0.0 10071376
15:00+34сз543699 0.0 10062170
18:00+20з81486100 9.0 1006311
21:00+22ююв4683100 25.3 1007115